Time,TemperatureF,DewpointF,PressureIn,WindDirection,WindDirectionDegrees,WindSpeedMPH,WindSpeedGustMPH,Humidity,HourlyPrecipIn,Conditions,Clouds,dailyrainin,SoftwareType,DateUTC
2013-03-10 00:01:00,41.5,34.5,29.83,SSE,164,10.0,10.0,76,0.00,,,0.10,meteohub,2013-03-10 06:01:00,
2013-03-10 00:06:00,41.5,34.5,29.83,South,171,8.0,12.0,76,0.00,,,0.00,meteohub,2013-03-10 06:06:00,
2013-03-10 00:12:00,41.7,34.7,29.83,SSE,156,11.0,12.0,76,0.00,,,0.00,meteohub,2013-03-10 06:12:00,
2013-03-10 00:17:00,42.3,35.2,29.83,SSE,163,10.0,12.0,76,0.00,,,0.00,meteohub,2013-03-10 06:17:00,
2013-03-10 00:22:00,42.4,35.1,29.84,SSE,167,6.0,13.0,75,0.00,,,0.00,meteohub,2013-03-10 06:22:00,
2013-03-10 00:27:00,42.3,35.2,29.84,South,172,7.0,13.0,76,0.00,,,0.00,meteohub,2013-03-10 06:27:00,
2013-03-10 00:32:00,42.3,35.2,29.84,South,180,12.0,13.0,76,0.00,,,0.00,meteohub,2013-03-10 06:32:00,
2013-03-10 00:37:00,42.4,35.4,29.84,South,173,5.0,13.0,76,0.00,,,0.00,meteohub,2013-03-10 06:37:00,
2013-03-10 00:42:00,42.3,35.2,29.84,SSE,165,9.0,19.0,76,0.01,,,0.01,meteohub,2013-03-10 06:42:00,
2013-03-10 00:47:00,42.3,35.2,29.84,South,179,11.0,19.0,76,0.01,,,0.01,meteohub,2013-03-10 06:47:00,
2013-03-10 00:52:00,42.3,35.2,29.85,South,172,7.0,19.0,76,0.01,,,0.01,meteohub,2013-03-10 06:52:00,
2013-03-10 00:57:00,41.4,34.3,29.85,South,169,9.0,20.0,76,0.01,,,0.01,meteohub,2013-03-10 06:57:00,
2013-03-10 01:02:00,40.8,33.8,29.85,South,173,10.0,20.0,76,0.02,,,0.02,meteohub,2013-03-10 07:02:00,
2013-03-10 01:07:00,39.9,32.7,29.85,South,175,13.0,20.0,75,0.03,,,0.03,meteohub,2013-03-10 07:07:00,
2013-03-10 01:13:00,39.6,32.0,29.85,South,183,16.0,20.0,74,0.03,,,0.03,meteohub,2013-03-10 07:13:00,
2013-03-10 01:18:00,39.0,31.1,29.85,South,171,7.0,21.0,73,0.05,,,0.05,meteohub,2013-03-10 07:18:00,
2013-03-10 01:23:00,39.0,30.7,29.85,South,173,7.0,21.0,72,0.06,,,0.06,meteohub,2013-03-10 07:23:00,
2013-03-10 01:28:00,38.8,30.2,29.85,SSE,164,8.0,21.0,71,0.06,,,0.06,meteohub,2013-03-10 07:28:00,
2013-03-10 01:33:00,39.0,30.0,29.84,SSE,167,13.0,19.0,70,0.07,,,0.07,meteohub,2013-03-10 07:33:00,
2013-03-10 01:38:00,39.4,30.4,29.83,SSE,168,8.0,22.0,70,0.07,,,0.07,meteohub,2013-03-10 07:38:00,
2013-03-10 01:43:00,39.0,29.7,29.83,South,178,12.0,22.0,69,0.06,,,0.07,meteohub,2013-03-10 07:43:00,
2013-03-10 01:48:00,39.4,30.0,29.83,South,169,15.0,22.0,69,0.06,,,0.07,meteohub,2013-03-10 07:48:00,
2013-03-10 01:53:00,39.6,29.5,29.83,South,173,12.0,25.0,67,0.07,,,0.08,meteohub,2013-03-10 07:53:00,
2013-03-10 01:58:00,39.0,28.9,29.83,SSE,168,8.0,25.0,67,0.10,,,0.11,meteohub,2013-03-10 07:58:00,
2013-03-10 03:03:00,39.9,28.8,29.82,South,176,11.0,-999.0,64,-99.99,,,0.12,meteohub,2013-03-10 08:03:00,
2013-03-10 03:08:00,40.5,28.9,29.81,South,175,9.0,-999.0,63,-99.99,,,0.12,meteohub,2013-03-10 08:08:00,
2013-03-10 03:13:00,40.5,28.4,29.81,South,179,10.0,-999.0,62,-99.99,,,0.13,meteohub,2013-03-10 08:13:00,
2013-03-10 03:18:00,40.1,28.0,29.81,South,173,7.0,-999.0,62,-99.99,,,0.15,meteohub,2013-03-10 08:18:00,
2013-03-10 03:23:00,40.5,28.0,29.81,South,182,11.0,-999.0,61,-99.99,,,0.18,meteohub,2013-03-10 08:23:00,
2013-03-10 03:29:00,40.5,27.7,29.80,SSE,167,4.0,-999.0,60,-99.99,,,0.19,meteohub,2013-03-10 08:29:00,
2013-03-10 03:34:00,40.5,27.3,29.80,SSE,165,7.0,-999.0,59,-99.99,,,0.20,meteohub,2013-03-10 08:34:00,
2013-03-10 03:39:00,40.6,27.0,29.80,South,175,5.0,-999.0,58,-99.99,,,0.21,meteohub,2013-03-10 08:39:00,
2013-03-10 03:44:00,40.5,26.8,29.80,South,169,6.0,-999.0,58,-99.99,,,0.21,meteohub,2013-03-10 08:44:00,
2013-03-10 03:49:00,41.0,27.0,29.79,South,177,7.0,-999.0,57,-99.99,,,0.21,meteohub,2013-03-10 08:49:00,
2013-03-10 03:54:00,41.0,26.4,29.80,South,183,14.0,-999.0,56,-99.99,,,0.21,meteohub,2013-03-10 08:54:00,
2013-03-10 03:59:00,40.6,26.2,29.80,SSE,167,6.0,-999.0,56,-99.99,,,0.22,meteohub,2013-03-10 08:59:00,
2013-03-10 04:04:00,40.8,25.9,29.79,SSE,168,7.0,-999.0,55,-99.99,,,0.22,meteohub,2013-03-10 09:04:00,
2013-03-10 04:09:00,41.2,25.9,29.79,South,169,9.0,-999.0,54,-99.99,,,0.22,meteohub,2013-03-10 09:09:00,
2013-03-10 04:14:00,41.2,25.9,29.79,SSE,167,6.0,-999.0,54,-99.99,,,0.22,meteohub,2013-03-10 09:14:00,
2013-03-10 04:19:00,41.2,25.9,29.79,South,169,6.0,-999.0,54,-99.99,,,0.22,meteohub,2013-03-10 09:19:00,
2013-03-10 04:24:00,41.2,25.3,29.79,SSE,165,7.0,-999.0,53,-99.99,,,0.22,meteohub,2013-03-10 09:24:00,
2013-03-10 04:29:00,41.0,25.2,29.79,SSE,167,6.0,-999.0,53,-99.99,,,0.22,meteohub,2013-03-10 09:29:00,
2013-03-10 04:34:00,41.0,25.2,29.79,SSE,160,9.0,-999.0,53,-99.99,,,0.23,meteohub,2013-03-10 09:34:00,
2013-03-10 04:39:00,41.2,24.8,29.79,South,170,6.0,-999.0,52,-99.99,,,0.23,meteohub,2013-03-10 09:39:00,
2013-03-10 04:44:00,40.8,24.6,29.79,South,169,10.0,-999.0,52,-99.99,,,0.23,meteohub,2013-03-10 09:44:00,
2013-03-10 04:49:00,41.0,24.8,29.79,SSE,166,6.0,-999.0,52,-99.99,,,0.23,meteohub,2013-03-10 09:49:00,
2013-03-10 04:54:00,40.8,24.1,29.79,SSE,165,8.0,-999.0,51,-99.99,,,0.23,meteohub,2013-03-10 09:54:00,
2013-03-10 05:00:00,40.6,23.9,29.79,South,178,9.0,-999.0,51,-99.99,,,0.23,meteohub,2013-03-10 10:00:00,
2013-03-10 05:05:00,40.6,23.9,29.79,South,184,13.0,-999.0,51,-99.99,,,0.23,meteohub,2013-03-10 10:05:00,
2013-03-10 05:10:00,40.6,23.9,29.80,South,176,16.0,-999.0,51,-99.99,,,0.23,meteohub,2013-03-10 10:10:00,
2013-03-10 05:15:00,40.8,24.1,29.79,South,188,17.0,-999.0,51,-99.99,,,0.23,meteohub,2013-03-10 10:15:00,
2013-03-10 05:20:00,40.8,23.5,29.80,South,180,15.0,-999.0,50,-99.99,,,0.23,meteohub,2013-03-10 10:20:00,
2013-03-10 05:25:00,40.5,23.4,29.80,South,182,16.0,-999.0,50,-99.99,,,0.24,meteohub,2013-03-10 10:25:00,
2013-03-10 05:30:00,40.6,23.5,29.79,South,180,12.0,-999.0,50,-99.99,,,0.24,meteohub,2013-03-10 10:30:00,
2013-03-10 05:35:00,40.6,23.5,29.80,South,182,16.0,-999.0,50,-99.99,,,0.25,meteohub,2013-03-10 10:35:00,
2013-03-10 05:40:00,40.6,23.5,29.80,South,172,7.0,-999.0,50,-99.99,,,0.26,meteohub,2013-03-10 10:40:00,
2013-03-10 05:45:00,40.5,23.4,29.79,South,184,12.0,-999.0,50,-99.99,,,0.27,meteohub,2013-03-10 10:45:00,
2013-03-10 05:51:00,40.8,23.2,29.79,South,178,7.0,-999.0,49,-99.99,,,0.28,meteohub,2013-03-10 10:51:00,
2013-03-10 05:55:00,40.8,23.2,29.79,South,182,12.0,-999.0,49,-99.99,,,0.29,meteohub,2013-03-10 10:55:00,
2013-03-10 06:01:00,41.0,23.4,29.80,South,178,9.0,-999.0,49,-99.99,,,0.29,meteohub,2013-03-10 11:01:00,
2013-03-10 06:06:00,41.2,23.0,29.80,South,177,6.0,-999.0,48,-99.99,,,0.29,meteohub,2013-03-10 11:06:00,
2013-03-10 06:11:00,41.7,23.5,29.79,SSE,161,8.0,-999.0,48,-99.99,,,0.29,meteohub,2013-03-10 11:11:00,
2013-03-10 06:16:00,41.5,23.4,29.79,SSE,164,6.0,-999.0,48,-99.99,,,0.30,meteohub,2013-03-10 11:16:00,
2013-03-10 06:21:00,40.6,22.5,29.79,SSE,164,6.0,-999.0,48,-99.99,,,0.30,meteohub,2013-03-10 11:21:00,
2013-03-10 06:26:00,40.6,22.5,29.79,SSE,161,7.0,-999.0,48,-99.99,,,0.30,meteohub,2013-03-10 11:26:00,
2013-03-10 06:31:00,40.5,22.3,29.79,SSE,159,7.0,-999.0,48,-99.99,,,0.31,meteohub,2013-03-10 11:31:00,
2013-03-10 06:36:00,40.5,22.3,29.78,SSE,161,7.0,-999.0,48,-99.99,,,0.31,meteohub,2013-03-10 11:36:00,
2013-03-10 06:41:00,40.3,22.1,29.78,SSE,161,6.0,-999.0,48,-99.99,,,0.32,meteohub,2013-03-10 11:41:00,
2013-03-10 06:46:00,40.1,21.9,29.78,SSE,157,8.0,-999.0,48,-99.99,,,0.33,meteohub,2013-03-10 11:46:00,
2013-03-10 06:51:00,39.7,21.7,29.77,SSE,155,7.0,-999.0,48,-99.99,,,0.34,meteohub,2013-03-10 11:51:00,
2013-03-10 06:57:00,39.6,21.6,29.77,SSE,153,7.0,-999.0,48,-99.99,,,0.35,meteohub,2013-03-10 11:57:00,
2013-03-10 07:02:00,39.7,21.7,29.78,SSE,153,7.0,-999.0,48,-99.99,,,0.36,meteohub,2013-03-10 12:02:00,
2013-03-10 07:07:00,39.6,21.6,29.78,SSE,153,6.0,-999.0,48,-99.99,,,0.36,meteohub,2013-03-10 12:07:00,
2013-03-10 07:12:00,39.6,21.6,29.78,SSE,153,7.0,-999.0,48,-99.99,,,0.36,meteohub,2013-03-10 12:12:00,
2013-03-10 07:17:00,39.7,21.7,29.76,SE,146,9.0,-999.0,48,-99.99,,,0.36,meteohub,2013-03-10 12:17:00,
2013-03-10 07:22:00,39.7,21.7,29.78,SE,146,7.0,-999.0,48,-99.99,,,0.36,meteohub,2013-03-10 12:22:00,
2013-03-10 07:27:00,39.7,21.2,29.78,SE,146,8.0,-999.0,47,-99.99,,,0.36,meteohub,2013-03-10 12:27:00,
2013-03-10 07:32:00,39.7,21.2,29.78,SSE,151,10.0,-999.0,47,-99.99,,,0.36,meteohub,2013-03-10 12:32:00,
2013-03-10 07:37:00,39.7,21.2,29.78,SSE,148,11.0,-999.0,47,-99.99,,,0.36,meteohub,2013-03-10 12:37:00,
2013-03-10 07:42:00,39.6,21.0,29.77,SSE,150,8.0,-999.0,47,-99.99,,,0.36,meteohub,2013-03-10 12:42:00,
2013-03-10 07:47:00,39.6,21.0,29.77,SSE,150,6.0,-999.0,47,-99.99,,,0.36,meteohub,2013-03-10 12:47:00,
2013-03-10 07:52:00,39.6,21.0,29.78,SSE,151,9.0,-999.0,47,-99.99,,,0.36,meteohub,2013-03-10 12:52:00,
2013-03-10 07:57:00,39.6,21.0,29.78,SSE,150,8.0,-999.0,47,-99.99,,,0.36,meteohub,2013-03-10 12:57:00,
2013-03-10 08:02:00,39.6,21.0,29.78,SSE,155,7.0,-999.0,47,-99.99,,,0.36,meteohub,2013-03-10 13:02:00,
2013-03-10 08:08:00,39.7,21.2,29.78,SSE,155,7.0,-999.0,47,-99.99,,,0.36,meteohub,2013-03-10 13:08:00,
2013-03-10 08:13:00,39.6,21.0,29.78,SSE,155,5.0,-999.0,47,-99.99,,,0.36,meteohub,2013-03-10 13:13:00,
2013-03-10 08:18:00,39.7,21.2,29.78,SSE,155,6.0,9.0,47,-99.99,,,0.36,meteohub,2013-03-10 13:18:00,
2013-03-10 08:23:00,39.4,20.8,29.79,SSE,155,4.0,9.0,47,-99.99,,,0.36,meteohub,2013-03-10 13:23:00,
2013-03-10 08:28:00,39.0,20.5,29.79,SSE,155,5.0,6.0,47,-99.99,,,0.36,meteohub,2013-03-10 13:28:00,
2013-03-10 08:33:00,39.0,20.5,29.79,SSE,155,4.0,6.0,47,-99.99,,,0.36,meteohub,2013-03-10 13:33:00,
2013-03-10 08:38:00,39.6,21.0,29.79,SSE,155,5.0,6.0,47,-99.99,,,0.36,meteohub,2013-03-10 13:38:00,
2013-03-10 08:43:00,39.7,21.2,29.79,SSE,161,5.0,7.0,47,-99.99,,,0.36,meteohub,2013-03-10 13:43:00,
2013-03-10 08:48:00,40.3,21.7,29.79,South,169,5.0,7.0,47,-99.99,,,0.36,meteohub,2013-03-10 13:48:00,
2013-03-10 08:53:00,40.6,21.6,29.79,SSE,165,7.0,10.0,46,-99.99,,,0.36,meteohub,2013-03-10 13:53:00,
2013-03-10 08:58:00,40.8,21.6,29.79,South,172,5.0,12.0,46,-99.99,,,0.36,meteohub,2013-03-10 13:58:00,
2013-03-10 09:03:00,40.6,21.6,29.79,SSE,168,6.0,12.0,46,0.00,,,0.36,meteohub,2013-03-10 14:03:00,
2013-03-10 09:08:00,40.5,21.4,29.80,South,176,6.0,12.0,46,0.00,,,0.36,meteohub,2013-03-10 14:08:00,
2013-03-10 09:13:00,40.6,21.6,29.80,South,178,3.0,12.0,46,0.00,,,0.36,meteohub,2013-03-10 14:13:00,
2013-03-10 09:18:00,41.0,21.7,29.80,South,179,6.0,13.0,46,0.00,,,0.36,meteohub,2013-03-10 14:18:00,
2013-03-10 09:24:00,41.2,21.9,29.80,South,184,11.0,13.0,46,0.00,,,0.36,meteohub,2013-03-10 14:24:00,
2013-03-10 09:29:00,41.0,21.7,29.80,South,179,10.0,14.0,46,0.00,,,0.36,meteohub,2013-03-10 14:29:00,
2013-03-10 09:34:00,40.6,21.6,29.80,South,176,5.0,14.0,46,0.00,,,0.36,meteohub,2013-03-10 14:34:00,
2013-03-10 09:39:00,41.2,21.9,29.80,South,173,5.0,14.0,46,0.00,,,0.36,meteohub,2013-03-10 14:39:00,
2013-03-10 09:44:00,41.2,21.9,29.80,South,173,3.0,13.0,46,0.00,,,0.36,meteohub,2013-03-10 14:44:00,
2013-03-10 09:49:00,40.8,21.6,29.80,South,174,4.0,11.0,46,0.00,,,0.36,meteohub,2013-03-10 14:49:00,
2013-03-10 09:54:00,41.0,21.7,29.80,South,174,2.0,7.0,46,0.00,,,0.36,meteohub,2013-03-10 14:54:00,
2013-03-10 09:59:00,41.2,21.9,29.80,South,174,3.0,7.0,46,0.00,,,0.36,meteohub,2013-03-10 14:59:00,
2013-03-10 10:04:00,41.2,21.9,29.80,South,174,2.0,7.0,46,0.00,,,0.36,meteohub,2013-03-10 15:04:00,
2013-03-10 10:09:00,41.2,21.9,29.80,South,174,2.0,6.0,46,0.00,,,0.36,meteohub,2013-03-10 15:09:00,
2013-03-10 10:14:00,41.2,21.9,29.80,South,174,2.0,5.0,46,0.00,,,0.36,meteohub,2013-03-10 15:14:00,
2013-03-10 10:19:00,41.2,21.9,29.80,South,174,2.0,5.0,46,0.00,,,0.36,meteohub,2013-03-10 15:19:00,
2013-03-10 10:25:00,41.4,22.1,29.80,South,174,3.0,5.0,46,0.00,,,0.36,meteohub,2013-03-10 15:25:00,
2013-03-10 10:30:00,41.5,22.3,29.80,South,174,4.0,5.0,46,0.00,,,0.36,meteohub,2013-03-10 15:30:00,
2013-03-10 10:35:00,41.5,22.3,29.81,South,174,4.0,5.0,46,0.00,,,0.36,meteohub,2013-03-10 15:35:00,
2013-03-10 10:40:00,41.2,21.9,29.80,South,173,4.0,5.0,46,0.00,,,0.36,meteohub,2013-03-10 15:40:00,
2013-03-10 10:45:00,41.2,21.9,29.81,South,174,4.0,5.0,46,0.00,,,0.36,meteohub,2013-03-10 15:45:00,
2013-03-10 10:50:00,41.2,21.9,29.81,South,173,3.0,5.0,46,0.00,,,0.36,meteohub,2013-03-10 15:50:00,
2013-03-10 10:55:00,40.8,21.6,29.81,South,174,4.0,5.0,46,0.00,,,0.36,meteohub,2013-03-10 15:55:00,
2013-03-10 11:00:00,40.6,21.9,29.81,South,173,3.0,5.0,47,0.00,,,0.36,meteohub,2013-03-10 16:00:00,
2013-03-10 11:05:00,40.6,21.9,29.81,South,174,2.0,5.0,47,0.00,,,0.36,meteohub,2013-03-10 16:05:00,
2013-03-10 11:10:00,40.6,21.9,29.80,South,174,4.0,5.0,47,0.00,,,0.36,meteohub,2013-03-10 16:10:00,
2013-03-10 11:15:00,40.6,21.9,29.80,South,174,4.0,5.0,47,0.00,,,0.36,meteohub,2013-03-10 16:15:00,
2013-03-10 11:20:00,40.5,21.7,29.80,South,174,5.0,5.0,47,0.01,,,0.37,meteohub,2013-03-10 16:20:00,
2013-03-10 11:25:00,40.5,21.7,29.80,South,174,4.0,5.0,47,0.01,,,0.37,meteohub,2013-03-10 16:25:00,
2013-03-10 11:30:00,40.5,21.7,29.79,South,173,4.0,5.0,47,0.01,,,0.37,meteohub,2013-03-10 16:30:00,
2013-03-10 11:35:00,41.2,22.5,29.78,South,173,3.0,5.0,47,0.01,,,0.37,meteohub,2013-03-10 16:35:00,
2013-03-10 11:40:00,41.5,22.3,29.78,South,173,4.0,5.0,46,0.01,,,0.37,meteohub,2013-03-10 16:40:00,
2013-03-10 11:45:00,42.1,22.8,29.77,South,173,4.0,5.0,46,0.01,,,0.37,meteohub,2013-03-10 16:45:00,
2013-03-10 12:21:00,41.7,23.0,29.78,SSE,157,6.0,9.0,47,0.00,,,0.37,meteohub,2013-03-10 17:21:00,
2013-03-10 12:26:00,41.2,22.5,29.78,SSE,157,5.0,9.0,47,0.00,,,0.37,meteohub,2013-03-10 17:26:00,
2013-03-10 12:31:00,41.2,23.0,29.78,SSE,157,6.0,9.0,48,0.00,,,0.37,meteohub,2013-03-10 17:31:00,
2013-03-10 12:36:00,41.2,23.0,29.78,SSE,157,5.0,7.0,48,0.00,,,0.37,meteohub,2013-03-10 17:36:00,
2013-03-10 12:41:00,41.2,23.0,29.78,SSE,157,5.0,7.0,48,0.00,,,0.37,meteohub,2013-03-10 17:41:00,
2013-03-10 12:46:00,41.0,22.8,29.78,SSE,157,4.0,7.0,48,0.00,,,0.37,meteohub,2013-03-10 17:46:00,
2013-03-10 12:52:00,41.0,22.8,29.78,SSE,157,4.0,7.0,48,0.00,,,0.37,meteohub,2013-03-10 17:52:00,
2013-03-10 12:57:00,41.0,22.8,29.78,SSE,157,6.0,7.0,48,0.01,,,0.38,meteohub,2013-03-10 17:57:00,
2013-03-10 13:02:00,41.2,23.0,29.78,SSE,157,5.0,6.0,48,0.02,,,0.39,meteohub,2013-03-10 18:02:00,
2013-03-10 13:07:00,41.2,23.0,29.77,SSE,157,4.0,6.0,48,0.03,,,0.40,meteohub,2013-03-10 18:07:00,
2013-03-10 13:12:00,41.2,23.0,29.77,SSE,157,5.0,6.0,48,0.04,,,0.41,meteohub,2013-03-10 18:12:00,
2013-03-10 13:17:00,41.4,23.2,29.77,SSE,157,3.0,6.0,48,0.06,,,0.43,meteohub,2013-03-10 18:17:00,
2013-03-10 13:22:00,41.5,23.4,29.76,SSE,157,4.0,5.0,48,0.06,,,0.43,meteohub,2013-03-10 18:22:00,
2013-03-10 13:28:00,41.9,23.7,29.76,SSE,157,5.0,5.0,48,0.07,,,0.44,meteohub,2013-03-10 18:28:00,
2013-03-10 13:33:00,41.7,23.5,29.77,SSE,157,6.0,6.0,48,0.07,,,0.44,meteohub,2013-03-10 18:33:00,
2013-03-10 13:38:00,41.9,23.7,29.76,SSE,157,5.0,6.0,48,0.08,,,0.45,meteohub,2013-03-10 18:38:00,
2013-03-10 13:43:00,41.7,23.5,29.77,SSE,157,6.0,6.0,48,0.09,,,0.46,meteohub,2013-03-10 18:43:00,
2013-03-10 13:48:00,41.9,23.7,29.76,SSE,157,5.0,7.0,48,0.11,,,0.48,meteohub,2013-03-10 18:48:00,
2013-03-10 13:53:00,41.5,23.4,29.75,SSE,157,5.0,7.0,48,0.13,,,0.50,meteohub,2013-03-10 18:53:00,
2013-03-10 13:58:00,41.7,23.5,29.75,SSE,157,5.0,7.0,48,0.15,,,0.52,meteohub,2013-03-10 18:58:00,
2013-03-10 14:03:00,41.9,23.7,29.75,SSE,157,5.0,7.0,48,0.15,,,0.53,meteohub,2013-03-10 19:03:00,
2013-03-10 14:09:00,41.9,23.7,29.74,SSE,157,5.0,6.0,48,0.16,,,0.55,meteohub,2013-03-10 19:09:00,
2013-03-10 14:14:00,42.1,23.7,29.74,SSE,157,5.0,6.0,48,0.15,,,0.55,meteohub,2013-03-10 19:14:00,
2013-03-10 14:19:00,42.3,23.9,29.73,SSE,157,5.0,6.0,48,0.14,,,0.55,meteohub,2013-03-10 19:19:00,
2013-03-10 14:24:00,42.3,23.9,29.73,SSE,157,4.0,6.0,48,0.12,,,0.55,meteohub,2013-03-10 19:24:00,
2013-03-10 14:38:00,42.3,23.9,29.72,SSE,157,6.0,7.0,48,0.10,,,0.57,meteohub,2013-03-10 19:38:00,
2013-03-10 14:53:00,42.4,23.7,29.71,SSE,157,5.0,6.0,47,0.07,,,0.59,meteohub,2013-03-10 19:53:00,